Home > Weather > San Salvador > Past weeks

Flag for El Salvador Past Weather in San Salvador, El Salvador — Yesterday and Last 2 Weeks

Now
90 °F

Passing clouds.


Feels Like: 103 °F
Forecast: 68 / 87 °F
Wind: 8 mph from South

Location: El Salvador Intl. Airport / Comalapa

Current Time: Jul 27, 2016 at 1:11:54 PM

Latest Report: Jul 27, 2016 at 11:50 AM


Visibility: N/A

Pressure: 29.83 "Hg (27.68 "Hg at 667m altitude)

Humidity: 67%

Dew Point: 77 °F

Location of San SalvadorLocation

Past Weather in San Salvador — Graph

°F

San Salvador Temperature Yesterday

Maximum temperature yesterday: 90 °F (at 10:50 AM)
Minimum temperature yesterday: 75 °F (at 3:50 AM)
Average temperature yesterday: 82 °F

High & Low Weather Summary for the Past Weeks

 TemperatureHumidityPressure
High93 °F (Jul 15, 11:50 AM)100% (Jul 12, 6:50 PM)30.04 "Hg (Jul 12, 6:50 PM)
Low72 °F (Jul 12, 6:50 PM)49% (Jul 14, 10:50 AM)29.77 "Hg (Jul 25, 2:50 PM)
Average82 °F80%29.87 "Hg
* Reported Jul 12 11:50 AM — Jul 27 11:50 AM, San Salvador, Weather by CustomWeather, © 2016

Note: Actual official high and low records may vary slightly from our data, if they occured in-between our weather recording intervals... More about our weather records

Advertising

San Salvador Weather History for the Previous 24 Hours

Scroll right to see more
 ConditionsComfort  
Time TempWeatherWind HumidityBarometerVisibility
11:50 AM
Wed, Jul 27
90 °FPassing clouds.8 mph67%29.83 "HgN/A
10:50 AM90 °FPassing clouds.6 mph67%29.83 "HgN/A
9:50 AM90 °FPassing clouds.5 mph59%29.83 "HgN/A
8:50 AM88 °FPassing clouds.7 mph62%29.86 "HgN/A
7:50 AM84 °FSunny.7 mph74%29.83 "Hg10 mi
6:50 AM81 °FPassing clouds.5 mph79%29.83 "HgN/A
5:50 AM75 °FSunny.5 mph94%29.80 "Hg10 mi
4:50 AM75 °FPassing clouds.2 mph100%29.80 "HgN/A
3:50 AM75 °FPassing clouds.5 mph100%29.80 "HgN/A
2:50 AM75 °FPassing clouds.5 mph100%29.80 "HgN/A
1:50 AM75 °FClear.2 mph100%29.80 "Hg10 mi
12:50 AM75 °FClear.2 mph94%29.80 "Hg10 mi
11:50 PM
Tue, Jul 26
77 °FClear.5 mph94%29.83 "Hg10 mi
10:50 PM77 °FClear.2 mph94%29.83 "Hg10 mi
9:50 PM77 °FPassing clouds.1 mph100%29.83 "HgN/A
8:50 PM81 °FPassing clouds.5 mph89%29.83 "HgN/A
7:50 PM82 °FPassing clouds.5 mph84%29.83 "HgN/A
6:50 PM82 °FClear.1 mph84%29.80 "Hg10 mi
5:50 PM86 °FPassing clouds.6 mph75%29.80 "HgN/A
4:50 PM88 °FScattered clouds.5 mph70%29.77 "HgN/A
3:50 PM86 °FPassing clouds.7 mph70%29.77 "HgN/A
2:50 PM86 °FPassing clouds.7 mph75%29.80 "HgN/A
1:50 PM86 °FPassing clouds.5 mph79%29.80 "HgN/A
Weather by CustomWeather, © 2016

See weather overviewHow to use our weather pages